User: anonymous   Login
Location: Newark
(52.3735°N, 16.9806°E)
Time: 03:39:25
(UTC+00:00)
Language:

XW-2D - Orbit

View from above orbital plane
View from above orbital plane
View from above satellite
View from above satellite

Ground track
Ground track

The orbit data is extracted from the following two-line orbital elements,

1 40907U 15049J   21332.89734744  .00001684  00000-0  86966-4 0  9994
2 40907  97.4898 333.1469 0013131 339.9320 107.4750 15.17625958342534
Epoch (UTC): 28 November 2021 21:32:10
Eccentricity: 0.0013131
inclination: 97.4898°
perigee height: 504 km
apogee height: 522 km
right ascension of ascending node: 333.1469°
argument of perigee: 339.9320°
revolutions per day: 15.17625958
mean anomaly at epoch: 107.4750°
orbit number at epoch: 34253

The dashed part of the orbit path shows where the satellite is in the earth's shadow,  

DLR